Location: Bastogne Gables
(35.1554°N, 78.9900°W)
Time: 03:44:41
(UTC+00:00)

H-2A R/B - Pass Details

Date: 29 October 2020
Orbit: 528 x 653 km, 98.3° (Epoch: 26 November)

Event Time Altitude Azimuth Distance (km) Brightness Sun altitude
Rises 22:44:35 0° 182° (S) 2,904 6.2 -4.9°
Reaches altitude 10° 22:46:50 10° 189° (S) 2,016 5.5 -5.4°
Maximum altitude 22:51:01 43° 261° (W) 912 4.2 -6.2°
Drops below altitude 10° 22:55:19 10° 333° (NNW) 2,062 5.5 -7.1°
Sets 22:57:39 0° 340° (NNW) 2,980 6.2 -7.5°
